Location: Akdamlar
(36.8729°N, 30.5187°E)
Time: 18:18:40
(UTC+00:00)

SJ 16-02 - Pass Details

Date: 18 September 2020
Orbit: 606 x 616 km, 75.0° (Epoch: 28 October)

Event Time Altitude Azimuth Distance (km) Brightness Sun altitude
Rises 16:17:42 0° 206° (SSW) 2,851 5.1 -4.3°
Reaches altitude 10° 16:19:58 10° 211° (SSW) 1,950 4.3 -4.7°
Maximum altitude 16:24:14 54° 289° (WNW) 740 2.3 -5.6°
Drops below altitude 10° 16:28:31 10° 7° (N) 1,961 3.9 -6.4°
Sets 16:30:49 0° 12° (NNE) 2,868 4.7 -6.9°
